STARLINK-33868, 63703

Orbit data source: Space-Track

STARLINK-33868, 63703 is a payload satellite owned by SpaceX/Seattle (US) in LEO that was launched on Mon, 28 Apr 2025 UTC via an FALCON 9 launch vehicle from the Air Force Western Test Range (AFWTR). Payload-class satellites include a variety of spacecraft equipped with specific instruments for various scientific and technological missions. These include communications satellites like Starlink; space stations such as the ISS; scientific satellites like the Hubble; Earth observation satellites from companies like Planet Labs, Umbra, and HawkEye 360; GPS; miniature CubeSats for education and research; and military/defense satellites.

Loading next visibility...
Identifier
63703, 2025-087G
Orbit
LEO
Country
Flag of USUS
Related business
Manufacturer
SpaceX/Seattle
Mission
Operational Commercial Communications
Bus & Motor
STARLINK V2MO, Unknown motor
Mass
575 kg wet, ~530 kg dry
Launch date (UTC)
2025-04-28 (8 months ago)
Launch vehicle
FALCON 9
Launch site
Air Force Western Test Range (AFWTR)
Object type
Payload
Rocket body
Debris
Shape & HBR
Box + 2 Pan, 17.7 m
Radar Cross Section
36.964 m², Large (>1 m²)

Expand to show TLE details & history
Last TLE update: 16 hours ago

TLE from 16 hours ago
0 STARLINK-33868
1 63703U 25087G   25348.93580273  .00022354  00000-0  76484-3 0  9998
2 63703  53.1600 253.2127 0001318  75.7998 284.3149 15.30189268 36223
Epoch: 2025-12-14T22:27Z
TLE epoch observation values (Epoch: 2025-12-14T22:27:33.355Z)
Latitude
-0.00005°
Longitude
-167.51789°
Altitude
475.924 km
Speed
7.629 km/s
True Right ascension
16h 52m 51s
True Declination
0° 00' 00"
Sunlit
Object was in daylight at epoch
Visualization orbit readout
Latitude
Unknown
Longitude
Unknown
Altitude
Unknown
Speed
Unknown
Apparent Right ascension
Unknown
Apparent Declination
Unknown
Sunlit
N/A
Visualization observer readout
Local Sidereal Time
13:24:38
Azimuth
Unknown
Elevation
Unknown
Doppler factor
Unknown
Orbital elements
Apogee altitude
476.407 km
Perigee altitude
474.6 km
Semi-major axis
6,853.641 km
Eccentricity
0.00013
Inclination
53.16°
RAAN
253.2127°
Arg. of periapsis
75.7998°
True anomaly
284.30027°
Mean anomaly
284.3149°
Eccentric anomaly
284.30758°
Mean motion
3.82526 °/min
Orbital period
94.11 mins
BSTAR
0.00076484
Loading maneuver chart data...
Computing Atmospheric mass density...
Loading historical data...
Loading historical data...
Loading historical data...
Loading historical data...
Loading historical data...
Loading historical data...
Loading historical data...

Documentation

Showing up to 5 results
|